Location: Arpaise
(41.0333°N, 14.7333°E)
Time: 01:17:33
(UTC+00:00)

Cosmos 1844 Rocket - Pass Details

Date: 05 July 2020
Orbit: 826 x 843 km, 71.0° (Epoch: 11 August)

Event Time Altitude Azimuth Distance (km) Brightness Sun altitude
Rises 21:08:04 0° 326° (NW) 3,372 7.4 -20.7°
Reaches altitude 10° 21:10:45 10° 316° (NW) 2,433 6.2 -20.9°
Maximum altitude 21:15:32 30° 257° (WSW) 1,438 4.0 -21.3°
Enters shadow 21:18:07 21° 214° (SW) 1,785 4.1 -21.6°
